Location: Thunder Bay
(48.4000°N, 89.2330°W)
Time: 22:10:19
(UTC-04:00)

ISS - Pass Details

Date: 02 July 2021
Orbit: 419 x 421 km, 51.6° (Epoch: 02 August)

Event Time Altitude Azimuth Distance (km) Brightness Sun altitude
Exits shadow 03:45:29 22° 157° (SSE) 974 -2.3 -14.9°
Maximum altitude 03:46:04 23° 141° (SE) 943 -2.2 -14.8°
Drops below altitude 10° 03:48:47 10° 87° (E) 1,502 -0.6 -14.6°
Sets 03:51:09 0° 72° (ENE) 2,369 0.8 -14.5°
